Showing default

EOS-5, 100607

Orbit data source: Space-Track

EOS-5, 100607 is an Indian payload satellite in HEO that was launched on Thu, 03 Sep 2026 UTC launched from the Sirharikota (SRI). Payload-class satellites include a variety of spacecraft equipped with specific instruments for various scientific and technological missions. These include communications satellites like Starlink; space stations such as the ISS; scientific satellites like the Hubble; Earth observation satellites from companies like Planet Labs, Umbra, and HawkEye 360; GPS; miniature CubeSats for education and research; and military/defense satellites.

Loading next visibility...
Identifier
100607, 2026-202A
Orbit
HEO
Country
Flag of ININ / IND
Related business
None
Manufacturer
Unknown
Mission
Operational spacecraft
Bus & Motor
Unknown
Mass
Unknown
Launch date (UTC)
2026-09-03 (2 days ago)
Launch vehicle
Unknown
Launch site
Sirharikota (SRI)
Object type
Payload
Rocket body
Debris
Shape & HBR
Unknown
Radar Cross Section
RCS unknown

Expand to show TLE details & history
Last TLE update: 13 hours ago

TLE from 13 hours ago
0 EOS-5
1 A0607U 26202A   26247.84289898  .00076291  44845-7  76220-3 0  9999
2 A0607  19.3222 249.4175 7022576 179.1386 183.5321  2.67302545    41
Epoch: 2026-09-04T20:13Z
TLE epoch observation values (Epoch: 2026-09-04T20:13:46.471Z)
Latitude
-0.00001°
Longitude
-37.9942°
Altitude
30,926.104 km
Speed
1.788 km/s
True Right ascension
16h 37m 38s
True Declination
0° 00' 00"
Sunlit
Object was in daylight at epoch
Visualization orbit readout
Latitude
Unknown
Longitude
Unknown
Altitude
Unknown
Speed
Unknown
Apparent Right ascension
Unknown
Apparent Declination
Unknown
Sunlit
N/A
Visualization observer readout
Local Sidereal Time
01:12:21
Azimuth
Unknown
Elevation
Unknown
Doppler factor
Unknown
Orbital elements
Apogee altitude
30,962.705 km
Perigee altitude
153.161 km
Semi-major axis
21,936.07 km
Eccentricity
0.70226
Inclination
19.3222°
RAAN
249.4175°
Arg. of periapsis
179.1386°
True anomaly
180.86795°
Mean anomaly
183.5321°
Eccentric anomaly
182.07514°
Mean motion
0.66804 °/min
Orbital period
538.89 mins
BSTAR
0.0007622
Loading maneuver chart data...
Computing Atmospheric mass density...
Loading historical data...
Loading historical data...
Loading historical data...
Loading historical data...
Loading historical data...
Loading historical data...
Loading historical data...
Other satellites on launch #202 in the year 2026 (2026-09-03 UTC)

Documentation

Showing up to 5 results
|